Theta_e
341 341 343 344 346 345 343 344 345 345 346 346 345 344 346 346 346 346 347 347 345 345 344 343 344 344 343 343 342 341 339 337 337 333 333 332 329 330 333 332 331 331 332 331 330 324 320 316 315 319 319 319 319 318 316 314 313 314 315 313 313 313 315
344 343 344 344 345 345 344 344 344 343 344 345 344 345 345 346 345 346 347 345 344 345 344 344 344 343 343 342 340 339 338 338 337 337 334 332 332 330 329 329 329 328 328 329 329 328 322 321 321 314 315 319 319 318 317 317 315 315 314 313 313 314 316
343 343 345 344 344 345 343 344 343 344 343 343 345 344 345 345 345 346 346 345 345 344 343 343 344 343 341 341 341 340 340 339 339 337 335 334 333 332 332 330 328 327 327 326 326 325 325 324 320 316 318 316 313 315 318 316 316 314 315 314 315 312 314
344 344 343 344 343 343 342 343 342 342 343 343 344 345 345 346 346 346 346 346 346 345 343 342 343 342 341 341 340 341 339 338 337 337 337 336 334 333 332 330 329 327 325 323 324 324 324 323 321 319 319 317 317 315 317 316 314 314 313 314 313 312 315
345 343 343 343 343 343 342 341 342 342 341 342 343 343 344 345 345 344 346 346 345 345 343 342 343 342 340 339 340 340 339 339 338 336 336 334 335 333 333 332 331 331 329 328 328 328 326 324 323 321 318 320 318 317 317 316 315 314 312 313 312 313 313
346 344 344 343 343 342 342 342 342 340 340 341 342 342 344 344 344 344 344 344 344 344 344 343 342 341 341 340 339 338 337 337 336 336 334 335 335 333 332 333 332 331 329 330 330 329 328 327 325 320 319 320 316 314 314 314 312 312 312 312 312 312 312
346 346 344 343 344 342 343 343 342 341 340 341 342 342 343 343 343 344 345 346 345 344 343 343 341 341 340 338 338 337 337 337 336 336 335 335 334 334 335 332 331 330 330 332 331 330 328 326 323 321 320 319 319 315 313 311 311 308 309 311 311 312 311
346 345 344 344 344 344 343 344 344 343 342 342 341 343 343 344 344 344 346 347 345 344 343 342 341 341 341 339 337 337 336 335 334 334 334 333 332 333 334 332 331 331 330 330 330 329 328 327 325 323 321 317 315 316 311 311 310 308 309 309 310 310 311
348 347 345 344 343 346 345 343 344 344 343 343 343 343 344 343 343 343 345 345 345 343 342 341 341 339 339 337 336 336 334 334 334 332 332 332 333 334 334 333 331 329 330 329 330 329 328 327 326 325 324 320 314 311 312 309 309 307 310 307 308 310 310
349 348 346 346 346 346 346 344 344 344 344 343 344 344 343 344 343 345 345 344 343 343 342 341 340 339 338 336 335 333 333 332 332 332 332 331 331 331 330 331 329 328 328 331 329 327 327 327 326 324 323 319 317 312 310 307 308 308 309 309 306 307 310
348 349 348 347 346 345 345 344 344 344 342 344 344 344 343 343 343 343 344 342 343 342 341 340 338 338 336 333 333 332 332 332 330 330 330 329 330 331 330 329 328 327 328 328 326 326 325 324 321 321 320 319 318 314 311 308 309 312 310 311 311 308 308
348 348 349 348 346 344 343 343 343 344 343 343 344 345 343 342 343 342 342 341 341 340 340 339 338 336 334 332 332 330 331 330 328 327 328 327 328 327 327 325 325 324 325 323 323 322 322 321 320 318 318 319 318 319 315 313 309 313 315 310 310 309 307
347 347 347 347 345 344 343 343 343 344 344 344 345 345 342 341 342 341 341 340 340 339 338 338 335 334 332 332 331 329 329 328 325 325 325 325 325 324 324 322 322 321 321 320 319 319 318 318 319 316 317 317 318 319 316 315 311 312 314 311 309 308 308
347 346 346 347 346 344 343 342 343 344 345 344 345 344 342 343 342 342 341 339 338 338 337 335 334 333 331 330 330 329 327 325 323 324 324 323 322 322 322 320 319 319 320 318 317 317 315 316 316 316 316 315 314 316 315 314 310 312 312 312 310 308 308
347 347 347 347 346 344 343 343 344 344 345 345 344 343 343 343 342 341 340 338 338 337 335 334 332 331 329 328 328 328 326 323 323 322 322 320 320 320 321 319 318 318 318 317 317 314 313 312 311 310 311 312 311 314 315 312 309 312 309 310 308 308 307
346 346 347 347 346 344 343 344 343 343 344 345 344 344 343 342 341 341 339 338 337 336 334 333 332 330 328 328 326 325 325 323 322 321 320 319 318 319 319 319 318 318 317 317 315 314 313 312 311 310 310 310 312 313 313 313 312 311 309 307 309 306 307
345 345 346 346 345 345 343 343 343 343 343 344 343 344 343 341 340 340 338 337 336 334 333 331 330 328 327 327 325 323 323 323 322 321 319 318 317 318 318 317 317 317 317 315 313 313 312 313 311 310 311 312 314 314 315 314 314 312 309 307 307 304 307
345 346 346 345 344 343 343 343 342 342 343 343 343 342 341 341 339 338 337 335 334 333 332 330 328 327 327 326 324 323 323 322 322 320 319 318 318 317 317 317 316 316 314 314 313 311 312 312 310 310 309 309 311 313 313 312 312 311 309 306 305 307 308
343 345 345 344 343 344 343 343 342 341 342 342 342 341 340 339 338 337 336 335 334 332 331 329 327 326 324 323 323 324 324 322 321 319 318 318 317 317 317 316 316 315 313 314 312 311 312 312 310 310 309 308 308 309 309 310 310 309 307 306 307 306 307
343 343 344 344 345 343 342 342 341 339 341 342 341 340 339 338 337 337 335 334 333 332 331 329 327 325 323 322 322 322 322 321 320 318 318 317 317 316 317 316 316 314 313 314 312 312 312 312 311 310 309 309 307 307 307 307 307 307 308 307 306 307 306
342 343 345 345 344 343 342 341 340 339 341 341 340 339 337 337 336 336 335 332 332 332 330 327 326 323 322 322 322 322 322 321 318 317 318 317 316 316 316 316 315 314 314 314 314 313 313 311 311 310 310 310 307 306 306 306 307 306 306 306 305 305 306
343 342 343 343 343 342 341 341 340 339 340 341 340 339 338 336 334 334 333 332 331 330 327 326 324 323 322 321 323 322 322 319 318 316 316 315 316 316 315 315 314 313 314 315 311 311 311 311 311 309 309 308 308 308 307 307 306 304 304 304 304 306 305
342 342 341 341 341 341 340 340 339 338 339 340 340 339 337 336 334 333 331 330 330 327 325 325 318 311 313 321 323 322 321 320 317 316 315 314 315 314 314 315 314 314 312 309 307 304 302 304 308 309 309 309 308 308 307 306 305 305 305 303 304 305 304
341 340 341 341 341 340 339 339 338 337 338 338 339 338 336 334 334 333 331 328 327 326 325 323 307 303 303 307 320 323 321 319 317 315 315 314 314 314 314 313 314 313 312 309 308 300 300 300 299 300 303 305 308 311 309 306 305 307 304 304 305 305 304
340 339 340 340 340 339 338 337 337 337 337 338 338 338 335 334 333 332 330 328 326 324 325 311 301 301 301 302 309 322 321 318 316 315 314 314 314 313 313 313 314 313 311 309 309 307 303 298 297 297 298 298 297 294 296 309 309 305 305 305 305 306 306
338 338 339 339 338 338 337 336 336 336 336 337 337 335 334 334 332 331 329 326 324 323 326 302 300 300 300 300 302 313 319 318 315 314 314 313 313 313 313 312 312 310 310 310 308 307 307 305 299 296 297 297 296 297 294 292 293 311 309 307 308 306 306
337 337 338 338 336 336 335 334 335 336 335 335 335 334 334 333 332 330 328 326 325 325 325 302 299 299 299 298 299 306 319 317 315 314 314 313 313 313 313 312 312 311 311 310 309 308 308 306 305 304 305 305 305 304 294 292 294 292 300 310 309 307 308
337 337 337 336 335 334 334 334 335 336 336 335 334 333 333 331 330 328 326 324 324 324 324 298 298 297 297 297 298 303 319 316 314 314 314 314 314 314 312 312 313 312 313 310 310 309 309 307 305 304 304 304 306 307 307 307 307 307 307 308 311 310 310
337 336 335 335 333 333 334 335 335 337 337 335 334 333 333 331 328 326 324 322 322 322 320 296 297 296 296 297 297 314 317 315 314 313 313 313 313 313 313 313 313 312 314 311 306 299 304 308 306 304 304 306 307 308 308 311 302 304 313 313 310 311 313
336 336 335 333 332 332 333 334 335 336 335 335 331 330 331 330 329 327 324 322 321 322 317 299 296 296 296 295 300 314 315 314 313 313 314 313 313 313 314 312 312 311 313 311 303 296 297 301 306 305 305 306 306 306 307 313 296 294 294 294 293 292 291
336 335 334 333 332 333 334 335 334 332 333 333 331 329 329 329 329 327 325 324 323 322 319 303 295 295 295 294 304 314 315 313 313 313 313 314 314 313 312 310 311 312 312 311 296 295 294 303 307 305 306 305 304 304 306 309 310 308 291 291 292 291 291
337 335 333 332 332 331 332 332 333 331 331 332 330 329 329 329 329 327 325 325 317 322 321 304 295 295 295 294 305 316 315 312 312 312 312 313 312 312 312 311 309 309 311 307 293 294 294 301 306 306 305 305 303 303 304 308 309 307 307 307 306 307 304
337 334 333 332 332 331 332 332 332 330 330 329 327 328 327 327 326 325 325 325 324 325 320 309 300 294 295 295 299 314 315 312 311 312 312 311 310 311 312 312 308 298 296 292 292 292 293 295 304 306 306 304 302 301 305 308 309 308 307 306 306 306 305
336 335 334 333 332 331 332 332 331 330 329 330 330 329 327 325 324 324 325 325 325 325 321 312 302 294 294 295 297 304 315 313 313 312 312 310 309 309 310 309 310 300 292 292 292 292 293 293 297 307 306 304 304 307 304 308 308 305 307 308 307 306 306
335 334 334 333 331 331 332 333 332 330 330 330 330 327 325 323 323 324 326 323 323 322 316 308 307 295 294 294 296 299 313 314 313 312 311 309 309 309 310 309 310 301 292 292 291 291 292 293 292 307 307 296 292 295 306 307 308 305 304 306 306 305 305
333 333 332 332 331 330 330 331 331 329 329 328 327 325 323 323 323 323 322 321 321 321 318 311 301 300 294 294 295 297 300 307 299 311 309 308 309 309 311 311 310 296 292 291 291 291 292 292 294 303 295 290 291 292 298 304 303 304 301 301 303 304 303
333 333 331 332 331 330 329 329 330 329 328 326 324 323 322 321 321 316 316 317 319 320 319 313 301 298 297 293 294 296 296 299 299 310 311 311 310 311 311 311 307 292 292 291 291 291 291 292 298 294 293 290 289 293 304 304 302 303 301 300 301 302 303
Wind_Speed
13 13 13 12 12 10 11 13 11 11 11 11 12 12 11 11 10 9 10 9 9 8 8 8 8 8 8 8 8 9 8 8 8 7 8 7 8 7 7 7 6 5 6 7 8 8 7 4 8 7 7 8 8 7 7 7 7 6 6 6 6 6 5
12 12 11 11 11 11 12 12 12 12 12 13 13 12 12 12 10 9 10 10 9 8 8 8 8 9 10 9 9 9 9 8 8 8 7 7 8 7 7 7 7 7 7 8 8 7 7 7 5 8 8 7 7 7 7 6 5 6 7 7 6 5 4
12 12 12 12 13 12 13 13 13 10 10 11 11 13 12 12 12 10 10 10 10 9 9 9 9 9 9 10 9 9 8 8 7 7 8 7 7 7 7 7 8 8 8 7 7 8 8 9 7 6 8 9 8 8 8 7 7 6 6 6 5 6 5
16 14 13 14 13 13 13 13 13 11 10 10 11 12 12 12 11 11 10 10 10 9 9 9 9 9 9 8 8 9 9 9 8 8 8 9 8 7 8 8 7 7 7 8 7 7 7 7 6 7 7 9 8 8 8 9 8 8 7 6 6 6 4
16 14 15 14 14 16 15 14 12 11 10 10 11 11 11 12 11 11 11 10 9 10 10 9 8 9 8 8 8 8 8 8 8 7 8 8 10 8 8 8 8 8 8 9 8 6 7 7 7 7 7 7 5 6 7 8 8 8 8 7 7 5 5
17 16 15 15 15 14 14 13 14 12 11 11 11 12 12 14 11 11 11 10 9 9 9 9 9 9 8 8 7 8 7 7 7 8 7 8 8 8 8 8 8 8 9 8 8 8 7 6 7 7 9 2 5 4 6 8 7 8 7 7 6 5 5
16 15 14 15 14 14 13 13 14 12 12 12 12 13 12 13 13 12 11 11 10 10 11 11 10 9 9 8 8 8 8 7 7 8 8 8 8 9 8 7 8 8 8 8 7 8 8 7 8 8 7 4 6 5 5 7 8 7 6 6 6 5 4
15 15 15 14 15 15 14 14 12 13 13 13 13 12 13 14 14 12 11 11 11 11 11 10 9 9 9 8 7 7 7 7 8 8 8 9 8 9 9 8 7 7 7 7 7 7 7 8 8 7 7 7 6 6 6 6 7 9 6 6 6 5 5
14 14 14 15 15 14 15 15 13 13 13 12 13 14 14 13 13 13 12 13 12 11 11 11 10 9 9 9 7 7 7 5 6 9 8 8 9 9 9 9 8 8 8 8 8 8 9 8 7 6 6 7 6 7 6 6 7 7 7 6 5 5 4
17 17 16 18 16 15 15 14 13 14 15 14 12 13 14 13 14 14 12 13 12 11 11 11 11 10 9 7 7 7 7 6 7 7 7 7 8 9 9 10 9 8 8 7 7 7 7 6 6 6 6 7 7 7 6 6 7 6 8 7 6 7 6
19 17 15 17 16 16 17 14 13 13 15 14 12 13 14 14 14 15 13 13 12 12 12 12 12 10 9 7 7 7 7 6 7 6 6 7 6 6 7 7 7 7 5 5 5 5 5 5 6 6 7 7 7 7 6 6 5 7 5 7 5 5 6
19 18 15 15 16 17 18 16 15 14 14 14 13 13 14 15 15 15 13 13 12 13 12 12 11 9 9 7 8 7 7 7 7 7 6 6 6 6 7 7 7 6 4 4 4 4 4 5 5 6 6 6 6 6 6 5 6 5 2 6 5 1 5
20 19 18 16 16 18 18 18 16 15 15 14 14 14 15 15 16 15 14 13 14 12 12 12 10 9 9 8 8 7 7 8 8 7 7 6 5 7 7 8 7 6 5 5 5 4 4 5 5 5 6 6 5 5 5 5 7 4 3 4 5 4 5
22 19 19 18 17 19 17 16 16 15 15 16 16 15 16 15 15 14 14 13 13 12 13 11 10 9 9 9 8 8 8 9 8 7 7 7 7 7 8 8 7 6 5 5 4 4 5 5 5 5 5 5 5 6 7 6 7 6 4 3 4 5 4
17 17 18 18 20 18 16 17 17 15 16 17 17 16 15 13 13 14 14 14 13 13 13 12 11 10 10 9 9 7 7 9 9 8 7 8 8 7 7 7 7 6 6 5 4 5 5 5 5 5 5 5 6 6 7 6 6 5 6 5 5 5 5
17 20 19 18 20 18 16 17 17 16 16 15 16 14 14 14 14 14 14 13 14 13 13 12 11 11 10 11 10 9 8 9 9 8 8 9 9 8 8 7 7 7 5 6 6 4 4 5 4 5 5 5 5 5 6 6 4 5 6 6 6 5 5
18 19 18 18 21 18 16 16 15 16 17 16 15 13 14 14 14 14 14 14 14 13 13 12 12 11 12 11 10 10 9 9 8 9 9 9 10 9 9 9 8 8 7 7 7 5 5 4 4 4 4 3 3 3 2 2 4 2 5 6 6 6 6
19 21 19 18 21 20 17 16 14 16 16 17 15 14 13 13 14 15 13 14 14 14 14 13 13 12 11 10 10 10 10 9 9 9 10 10 9 10 10 9 9 9 8 8 7 7 6 6 5 4 4 4 3 4 2 3 5 3 5 5 6 3 4
21 21 20 19 20 18 17 16 15 15 18 18 15 14 14 13 13 15 14 15 14 14 14 13 13 13 11 11 10 10 9 9 10 10 10 10 10 10 9 9 9 9 9 9 8 7 6 7 5 5 5 5 6 5 5 6 4 4 5 5 5 5 4
20 19 16 16 16 17 17 16 16 18 17 18 16 15 15 15 13 14 14 14 14 14 14 14 13 12 12 12 12 11 10 10 10 9 10 10 10 10 9 9 9 10 10 9 8 8 7 7 5 6 6 6 7 8 7 6 5 6 5 5 5 5 5
21 19 15 16 16 16 16 15 15 16 16 18 16 16 16 15 13 13 13 13 13 13 13 13 12 12 12 12 11 11 11 10 10 10 10 10 10 10 10 9 9 10 10 9 9 8 8 7 6 6 6 6 7 7 6 6 6 6 5 5 5 5 5
18 18 16 17 17 17 17 14 14 14 16 17 14 15 15 15 15 14 14 14 14 13 12 11 11 11 12 12 11 11 11 11 10 10 10 10 10 9 9 9 9 10 9 8 8 7 6 4 6 7 7 7 8 7 7 6 6 5 5 5 5 4 4
18 19 17 17 17 16 16 16 17 17 18 17 16 14 15 15 15 15 15 14 14 11 10 9 11 16 13 12 12 10 10 10 11 10 10 10 9 10 10 8 8 8 11 10 9 9 9 6 4 2 7 8 8 7 7 7 6 6 5 5 5 5 5
19 20 19 16 15 15 17 18 17 18 17 17 17 15 15 16 15 15 16 15 14 11 10 9 17 16 15 14 12 11 10 10 10 10 10 10 10 10 9 9 8 10 10 9 9 10 9 7 3 2 1 0 2 2 8 7 5 5 5 5 5 5 4
20 19 18 16 16 16 14 14 17 18 17 16 17 14 15 16 15 14 13 14 13 11 11 13 18 17 15 14 12 11 10 10 10 10 11 11 10 10 10 10 9 8 9 10 10 9 8 7 5 4 4 3 4 8 8 3 3 6 5 5 5 5 4
20 20 16 16 13 13 17 17 17 18 17 16 15 16 15 15 14 14 14 14 12 11 9 15 19 19 16 15 14 12 10 11 11 11 11 12 11 11 10 10 9 8 8 11 10 10 10 8 4 5 6 5 3 3 5 5 7 3 3 5 4 4 4
19 15 14 13 13 14 16 21 20 15 14 14 16 16 15 15 14 14 14 14 13 12 11 16 19 19 17 16 16 13 11 12 12 12 13 13 11 12 12 11 10 10 10 12 10 11 11 10 9 7 7 8 8 5 2 1 4 4 4 4 3 4 4
20 14 15 13 14 19 20 19 18 17 16 17 17 17 15 14 12 12 12 11 11 11 9 20 20 20 18 17 17 14 11 11 11 12 12 12 12 12 12 11 11 11 11 12 11 12 11 11 10 9 9 9 9 8 7 7 6 5 5 4 3 3 3
19 18 17 15 15 20 21 21 21 17 15 15 14 14 13 12 14 13 13 11 10 11 10 22 20 21 19 17 18 12 11 11 11 11 11 12 12 11 12 12 11 11 11 12 12 12 11 10 11 10 10 10 9 7 7 3 3 1 1 3 3 2 2
18 18 16 17 20 22 21 20 18 15 18 17 13 14 14 13 12 13 14 13 12 12 10 18 22 21 19 18 15 11 10 10 10 11 11 11 12 11 12 13 12 11 11 12 13 13 10 10 10 11 10 10 8 7 7 5 4 2 2 4 6 6 6
17 18 20 24 23 20 20 19 15 9 13 17 14 15 14 13 11 13 15 16 14 13 11 16 21 21 21 19 16 13 11 11 11 10 10 11 10 11 12 14 13 12 12 10 16 14 12 10 9 10 10 10 9 8 8 7 5 4 3 0 2 3 2
20 21 19 21 18 19 19 18 11 10 9 12 13 13 13 14 14 12 14 15 15 16 11 16 22 23 21 21 17 11 11 11 11 11 11 11 10 10 11 11 12 11 11 12 18 15 14 12 9 10 10 9 9 9 8 8 7 8 7 6 6 6 6
19 19 20 18 17 18 17 14 14 11 12 11 13 14 14 15 15 12 12 13 13 15 12 13 18 22 22 21 20 12 11 11 12 13 12 11 11 10 11 11 11 9 11 17 17 16 15 14 10 10 9 9 8 8 7 8 8 7 8 8 7 8 9
16 18 18 17 15 14 16 15 17 14 13 13 14 15 16 14 11 11 9 12 13 14 11 14 16 22 22 23 22 15 12 11 11 10 10 11 11 11 10 11 11 11 14 16 17 17 16 17 11 8 9 8 7 4 5 7 7 5 7 7 7 7 8
17 16 16 16 15 13 15 18 18 16 13 14 16 16 15 15 15 15 14 12 11 11 10 16 16 21 23 22 22 16 10 11 11 12 11 10 11 10 10 11 10 13 16 16 17 16 16 16 14 6 9 5 11 8 5 4 4 7 7 6 7 8 8
13 11 12 15 16 15 17 17 18 16 15 14 14 15 15 15 14 11 12 13 11 11 11 12 16 17 21 22 22 16 11 11 13 12 11 10 11 9 9 10 9 17 16 16 15 16 15 16 11 8 4 11 8 8 2 5 5 6 7 8 8 8 8
13 11 13 13 13 15 17 14 11 13 13 12 10 14 13 14 14 9 14 13 12 12 11 10 13 19 19 22 20 17 12 12 12 9 9 8 9 9 9 10 10 18 17 16 16 14 14 13 10 13 5 9 9 7 6 6 6 6 7 7 8 8 8
Wind_Direction
200 199 200 204 207 206 198 197 194 199 202 201 204 207 207 207 206 207 209 210 209 206 203 205 203 201 200 197 199 204 208 207 204 212 205 199 204 207 209 222 231 244 252 250 267 277 286 210 195 200 197 202 198 209 222 217 205 179 187 217 195 202 193
196 202 200 200 205 200 196 196 199 197 197 205 204 205 208 207 204 210 211 209 210 207 203 205 201 201 200 199 199 205 207 210 213 215 221 210 208 230 190 218 227 232 235 242 254 259 262 270 241 178 192 188 203 203 212 221 209 172 193 202 220 200 175
196 200 200 198 204 198 199 196 195 198 195 198 204 208 210 208 204 208 213 210 209 209 207 205 199 201 200 203 203 208 209 212 218 221 224 226 220 225 218 222 224 226 237 240 238 242 246 249 269 202 190 183 199 200 195 201 199 193 197 196 202 213 195
190 193 197 199 200 199 201 193 195 195 196 194 200 207 210 210 205 209 212 209 209 209 210 203 199 199 203 201 206 210 214 221 221 222 228 236 233 229 226 223 226 226 231 230 231 228 239 240 239 253 205 190 228 193 186 195 200 195 206 188 208 211 189
187 188 195 198 193 197 196 196 197 190 191 200 199 205 210 210 208 209 211 210 209 208 208 207 198 200 202 202 202 210 217 222 234 234 233 233 234 234 229 227 228 235 234 238 238 238 233 238 246 253 260 243 246 174 175 179 192 192 203 190 206 196 205
191 188 191 199 198 200 197 196 196 190 195 201 199 204 206 206 208 209 209 207 205 206 209 207 202 201 199 205 212 219 223 222 222 227 230 222 224 228 227 227 237 232 235 237 241 240 233 245 248 251 254 260 221 164 163 178 188 198 194 192 199 196 201
192 190 196 200 200 203 199 200 195 192 199 203 203 207 203 205 208 209 209 207 205 202 204 205 201 200 199 208 209 220 223 225 228 220 226 228 224 227 234 231 227 233 235 236 240 240 237 233 239 247 264 208 231 201 178 197 191 184 185 198 196 193 197
193 192 197 201 201 199 203 200 189 196 203 203 207 207 206 203 206 205 205 204 199 201 201 200 198 200 201 213 215 218 226 224 222 218 217 218 219 220 222 228 232 233 234 231 229 234 230 235 243 243 235 214 202 220 198 211 186 206 189 187 189 188 198
191 191 191 197 201 192 200 204 188 196 206 206 211 208 204 202 200 203 201 201 199 200 198 196 194 198 196 206 215 210 211 206 211 213 220 213 219 221 224 226 233 233 229 232 228 229 237 238 239 238 229 222 219 206 206 212 207 211 187 168 178 187 181
200 192 190 188 191 190 196 202 193 200 208 209 203 207 203 197 203 202 197 199 198 197 194 195 195 200 188 192 204 195 200 191 203 202 214 221 217 222 223 223 227 233 231 227 231 233 231 238 236 234 228 224 228 242 203 215 208 215 171 187 193 181 198
206 199 189 184 184 190 196 200 195 200 207 202 202 205 201 194 202 199 197 197 194 194 195 195 197 192 181 189 194 195 194 186 196 203 206 212 213 208 212 212 215 223 218 206 213 210 216 221 229 230 231 232 230 236 237 238 212 198 179 195 226 161 189
208 206 195 184 183 191 195 196 196 203 202 198 200 203 200 199 199 196 199 196 191 196 193 195 191 183 184 185 185 193 181 186 197 202 203 205 203 206 202 205 205 211 179 197 180 189 206 212 218 226 229 239 232 236 251 242 251 148 174 178 198 148 154
209 206 203 192 187 193 195 194 195 202 199 197 196 198 203 197 196 189 193 195 194 189 191 192 182 180 182 186 184 191 185 191 200 202 195 195 194 200 198 197 197 195 176 176 189 189 200 213 224 229 228 225 228 235 236 244 256 144 186 163 161 172 161
210 208 204 199 194 197 195 193 195 199 198 200 197 196 196 186 187 181 181 183 183 181 190 184 182 181 184 186 187 195 183 194 201 200 194 189 192 197 194 198 186 183 170 192 186 190 204 204 209 228 234 219 222 213 219 227 233 133 136 130 155 175 159
207 205 199 198 200 193 187 194 196 195 201 200 198 191 185 182 183 182 184 183 184 184 183 181 180 182 187 185 184 187 187 195 200 195 192 190 187 191 188 194 182 171 174 190 186 200 187 191 200 206 206 216 211 206 215 218 225 168 157 170 172 167 167
204 206 201 201 204 196 186 195 196 193 199 200 196 186 183 180 181 183 183 184 184 184 184 181 180 183 187 185 184 183 187 193 196 192 190 191 185 180 182 187 179 168 169 183 186 198 168 192 193 198 199 204 211 207 202 225 229 185 164 168 172 175 177
207 204 205 206 205 199 188 193 193 195 200 202 189 183 182 180 180 182 182 185 183 180 183 179 181 186 187 186 185 185 186 190 194 194 194 189 186 182 185 183 179 171 176 181 185 177 185 182 190 180 183 182 183 176 179 219 258 207 171 161 176 189 166
205 204 204 208 206 202 195 193 187 193 199 201 187 176 178 181 183 182 181 184 182 180 182 179 182 184 184 184 188 187 187 189 192 194 193 189 184 184 184 185 178 176 179 182 180 185 178 180 183 170 175 164 140 110 76 208 211 193 172 171 164 164 156
204 204 205 207 204 200 198 191 184 194 202 200 187 176 175 181 184 183 182 184 184 181 182 181 182 180 179 180 190 188 187 187 190 192 188 188 183 187 183 185 177 179 180 182 180 180 171 175 171 165 162 147 122 114 180 203 196 180 184 164 165 159 190
206 204 204 205 201 197 195 191 188 195 201 199 186 175 176 180 180 184 184 183 184 184 183 182 180 178 178 181 188 184 184 184 187 189 187 187 185 184 184 183 179 181 182 182 178 171 169 168 167 164 153 136 134 159 195 184 181 177 180 167 171 180 179
207 201 194 200 201 196 193 187 189 194 199 199 189 177 176 179 177 183 181 181 184 184 182 177 175 173 179 182 184 183 181 182 184 183 185 187 184 182 184 181 180 183 183 180 176 170 169 170 166 164 154 157 162 180 187 179 177 179 179 187 186 180 187
202 198 194 198 198 193 194 181 185 194 197 201 192 179 176 176 174 180 180 181 183 181 177 174 169 171 177 184 185 182 181 182 182 180 182 184 181 182 181 180 182 183 182 159 155 162 152 143 168 169 168 174 175 182 189 183 183 185 184 191 188 187 190
201 198 195 195 196 189 190 187 191 196 198 199 191 178 177 177 175 178 178 179 180 172 173 173 161 167 175 180 183 181 179 181 181 180 181 180 181 183 181 178 179 139 110 122 129 124 124 154 252 249 176 176 182 186 187 187 187 189 187 191 196 190 198
202 200 196 195 192 184 187 188 192 196 196 197 194 179 175 177 179 179 178 177 175 174 174 170 158 168 177 182 181 178 177 178 180 180 181 181 181 179 181 176 162 129 140 137 143 145 150 163 163 23 47 229 4 204 189 185 191 188 190 200 191 199 209
200 197 193 191 191 186 180 181 189 194 193 194 195 186 176 179 176 174 175 178 175 176 182 154 160 166 174 177 181 173 175 175 179 180 183 182 180 179 178 176 168 167 177 178 167 160 161 158 152 148 135 80 57 38 30 21 189 181 200 211 194 204 208
197 195 191 192 182 178 187 187 192 191 190 194 188 189 179 176 176 175 174 176 178 174 181 154 164 165 171 176 173 175 177 177 178 181 182 184 183 178 176 175 171 172 172 158 169 176 176 166 148 143 131 119 64 26 10 21 11 9 259 225 215 203 215
194 185 184 180 165 181 188 191 190 190 188 185 189 190 178 175 174 176 177 179 179 176 177 155 163 166 171 178 173 180 180 178 182 182 183 184 181 178 177 175 173 174 171 172 184 180 179 177 173 170 180 192 195 165 132 36 313 294 300 285 226 217 195
193 181 183 178 171 188 192 190 188 190 189 188 191 192 184 176 173 173 172 172 176 176 165 155 165 169 173 181 177 186 182 179 183 184 183 182 180 179 177 178 177 178 173 178 187 183 180 176 174 178 184 188 194 191 197 201 208 217 222 240 252 234 205
188 188 188 178 175 188 189 190 192 190 188 186 189 191 190 176 176 176 174 168 173 177 154 162 167 171 174 183 178 186 184 180 184 183 181 181 178 179 176 178 179 180 179 183 173 174 185 173 176 179 182 186 191 190 199 147 117 191 305 236 242 273 28
190 185 182 180 184 188 189 189 189 183 189 191 186 189 194 187 181 178 177 177 175 177 153 170 170 170 173 181 181 189 179 182 183 183 182 180 181 177 179 179 182 184 179 187 152 167 174 178 179 183 184 185 188 190 199 154 109 118 282 336 3 25 42
183 180 184 187 186 186 187 189 183 155 181 192 186 190 191 193 182 181 182 185 182 173 166 170 170 170 174 178 187 185 179 183 181 182 182 182 184 181 180 179 182 185 181 176 149 168 166 184 191 187 187 185 185 194 202 190 172 174 131 263 332 324 302
185 186 186 187 183 184 189 189 166 161 169 186 188 187 191 197 196 183 187 188 172 178 167 165 175 173 171 178 191 189 183 182 180 182 180 180 186 184 177 172 186 185 187 145 155 160 168 184 202 189 189 188 190 197 202 196 191 185 186 199 209 209 224
183 185 186 182 180 182 180 174 172 164 177 181 184 185 189 197 193 186 181 188 178 187 164 164 177 171 171 179 194 192 183 183 184 182 183 175 178 185 176 177 176 188 150 141 159 162 173 193 203 188 189 195 194 198 195 200 196 195 189 203 210 209 221
182 185 181 180 177 171 180 177 180 173 180 185 187 194 193 193 183 188 187 198 190 186 168 159 170 174 174 181 194 202 183 187 181 173 180 177 185 183 179 181 181 165 146 154 159 171 176 195 222 202 192 198 201 169 186 198 183 206 209 202 213 216 215
183 183 180 175 171 170 180 184 184 180 185 189 189 189 186 188 191 198 203 200 187 183 162 163 166 179 176 180 192 205 188 180 172 170 183 187 187 186 186 177 182 154 155 158 165 171 181 192 212 237 201 141 91 104 188 210 180 188 213 216 215 217 220
172 172 171 171 169 170 181 183 183 182 182 187 185 182 182 184 189 190 190 199 193 184 167 170 164 171 177 180 192 204 193 169 161 180 180 183 193 184 183 179 151 144 157 159 167 176 181 191 196 219 141 115 116 96 156 212 209 204 207 215 222 226 224
168 163 169 170 163 171 180 181 177 179 179 178 176 181 182 183 186 162 188 196 196 193 182 162 162 173 177 182 189 194 183 164 162 184 184 185 198 184 171 179 146 151 156 163 170 177 184 184 195 209 163 139 128 167 211 216 210 212 212 215 218 226 228